This demonstration page uses our WeatherBlox Daily Observations layout. Learn more.

Hourly Observations for May 2, 2016

Temp ( °F °C ) Dew Point ( °F °C ) Humidity (%) Winds ( mph kmh ) Pressure ( in mb ) Visibility ( mi km ) Precip ( " mm )
12:15 am 00:15 Partly Cloudy 39 4 37 2.6 91 91 WNW 5 7 30.27 1025 10 16.0934 0 0
12:35 am 00:35 Partly Cloudy 40 4.5 37 2.6 88 88 WNW 3 6 30.24 1024 10 16.0934 0 0
12:55 am 00:55 Partly Cloudy 39 4 36 2.2 88 88 WNW 5 7 30.27 1025 10 16.0934 0 0
1:15 am 01:15 Partly Cloudy 39 3.7 36 2.1 89 89 W 3 6 30.27 1025 10 16.0934 0 0
1:35 am 01:35 Clear 38 3.3 35 1.8 90 90 W 5 7 30.27 1025 10 16.0934 0 0
1:55 am 01:55 Partly Cloudy 39 4.1 37 2.5 89 89 W 8 13 30.27 1025 10 16.0934 0 0
2:15 am 02:15 Mostly Cloudy 39 3.8 36 2.3 90 90 WNW 7 11 30.27 1025 10 16.0934 0 0
2:35 am 02:35 Partly Cloudy 39 3.9 36 2.3 89 89 W 7 11 30.27 1025 10 16.0934 0 0
2:55 am 02:55 Clear 39 3.7 37 2.5 92 92 W 8 13 30.27 1025 10 16.0934 0 0
3:15 am 03:15 Clear 39 3.7 36 2.4 91 91 W 7 11 30.27 1025 10 16.0934 0 0
3:35 am 03:35 Clear 39 3.7 36 2.4 91 91 W 8 13 30.27 1025 10 16.0934 0 0
3:55 am 03:55 Clear 39 3.8 37 2.5 91 91 WNW 7 11 30.24 1024 10 16.0934 0 0
4:15 am 04:15 Clear 38 3.6 36 2.1 90 90 W 8 13 30.24 1024 10 16.0934 0 0
4:35 am 04:35 Clear 38 3.5 36 2 90 90 W 7 11 30.24 1024 10 16.0934 0 0
4:55 am 04:55 Clear 38 3.1 35 1.7 91 91 N 5 7 30.24 1024 10 16.0934 0 0
5:15 am 05:15 Clear 37 2.5 34 1.2 91 91 NNW 6 9 30.24 1024 10 16.0934 0 0
5:35 am 05:35 Clear 35 1.6 33 0.5 93 93 NW 5 7 30.24 1024 10 16.0934 0 0
5:55 am 05:55 Clear 35 1.7 33 0.8 94 94 NW 5 7 30.24 1024 10 16.0934 0 0
6:15 am 06:15 Clear 35 1.5 33 0.5 93 93 NW 3 6 30.24 1024 10 16.0934 0 0
6:35 am 06:35 Sunny 34 1.2 32 0.1 92 92 NW 5 7 30.24 1024 10 16.0934 0 0
6:55 am 06:55 Sunny 34 1.3 32 0.1 92 92 NW 5 7 30.24 1024 10 16.0934 0 0
7:15 am 07:15 Sunny 35 1.5 32 0.2 91 91 NW 5 7 30.24 1024 10 16.0934 0 0
7:35 am 07:35 Sunny 36 2.2 33 0.7 90 90 NW 3 6 30.27 1025 10 16.0934 0 0
7:55 am 07:55 Sunny 38 3.2 35 1.5 89 89 NW 5 7 30.27 1025 10 16.0934 0 0
8:15 am 08:15 Sunny 40 4.2 36 2.2 87 87 NW 3 6 30.21 1023 10 16.0934 0 0
8:35 am 08:35 Sunny 41 5.2 37 2.6 84 84 NW 5 7 30.24 1024 10 16.0934 0 0
8:55 am 08:55 Sunny 44 6.5 38 3.4 81 81 NW 3 6 30.24 1024 10 16.0934 0 0
9:15 am 09:15 Sunny 46 7.7 39 3.8 77 77 NNW 6 9 30.18 1022 10 16.0934 0 0
9:35 am 09:35 Sunny 48 8.7 40 4.2 74 74 NNW 7 11 30.18 1022 10 16.0934 0 0
9:55 am 09:55 Sunny 49 9.5 39 3.7 67 67 NNW 8 13 30.18 1022 10 16.0934 0 0
10:15 am 10:15 Sunny 50 10.2 39 4 66 66 N 6 9 30.18 1022 10 16.0934 0 0
10:35 am 10:35 Sunny 51 10.7 37 3 59 59 NNW 8 13 30.15 1021 10 16.0934 0 0
10:55 am 10:55 Sunny 52 11 34 1.3 52 52 N 3 6 30.15 1021 10 16.0934 0 0
11:15 am 11:15 Sunny 53 11.6 37 2.6 54 54 N 3 6 30.15 1021 10 16.0934 0 0
11:35 am 11:35 Sunny 53 11.6 35 1.6 51 51 NNW 7 11 30.15 1021 10 16.0934 0 0
11:55 am 11:55 Sunny 54 12.1 35 1.5 49 49 NW 7 11 30.12 1020 10 16.0934 0 0
12:15 pm 12:15 Sunny 54 12.2 33 0.8 46 46 NNW 7 11 30.12 1020 10 16.0934 0 0
12:35 pm 12:35 Sunny 55 12.6 35 1.8 48 48 NW 9 15 30.12 1020 10 16.0934 0 0
12:55 pm 12:55 Sunny 55 13 35 1.8 47 47 NW 7 11 30.12 1020 10 16.0934 0 0
1:15 pm 13:15 Sunny 56 13.1 34 1.1 44 44 NNW 6 9 30.12 1020 10 16.0934 0 0
1:35 pm 13:35 Sunny 56 13.2 34 1.3 45 45 NNW 3 6 30.12 1020 10 16.0934 0 0
1:55 pm 13:55 Sunny 56 13.6 34 1 43 43 NNW 3 6 30.12 1020 10 16.0934 0 0
2:15 pm 14:15 Sunny 58 14.4 37 2.6 45 45 N 5 7 30.09 1019 10 16.0934 0 0
2:35 pm 14:35 Sunny 57 14 35 1.5 43 43 Calm 30.09 1019 10 16.0934 0 0
2:55 pm 14:55 Sunny 58 14.7 36 2.1 43 43 NNW 5 7 30.09 1019 10 16.0934 0 0
3:15 pm 15:15 Sunny 58 14.7 33 0.7 39 39 NW 3 6 30.09 1019 10 16.0934 0 0
3:35 pm 15:35 Sunny 58 14.5 34 1.3 41 41 Calm 30.06 1018 10 16.0934 0 0
3:55 pm 15:55 Sunny 59 15.2 36 2.3 42 42 ENE 3 6 30.06 1018 10 16.0934 0 0
4:15 pm 16:15 Sunny 59 14.8 36 2 42 42 NNW 3 6 30.06 1018 10 16.0934 0 0
4:35 pm 16:35 Sunny 59 14.8 34 1 39 39 Calm 30.06 1018 10 16.0934 0 0
4:55 pm 16:55 Sunny 58 14.5 37 2.5 45 45 NNE 5 7 30.03 1017 10 16.0934 0 0
5:15 pm 17:15 Sunny 58 14.6 36 2.1 43 43 Calm 30.03 1017 10 16.0934 0 0
5:35 pm 17:35 Sunny 59 14.8 35 1.4 40 40 Calm 30.03 1017 10 16.0934 0 0
5:55 pm 17:55 Sunny 58 14.5 37 2.6 45 45 Calm 30.03 1017 10 16.0934 0 0
6:15 pm 18:15 Sunny 58 14.5 36 2 43 43 Calm 30.03 1017 10 16.0934 0 0
6:35 pm 18:35 Sunny 58 14.3 39 3.9 50 50 ESE 3 6 30.03 1017 10 16.0934 0 0
6:55 pm 18:55 Sunny 58 14.2 38 3.2 48 48 E 3 6 30.03 1017 10 16.0934 0 0
7:15 pm 19:15 Sunny 57 14.1 39 3.7 50 50 E 6 9 30.03 1017 10 16.0934 0 0
7:35 pm 19:35 Sunny 56 13.3 40 4.5 55 55 ESE 6 9 30 1016 10 16.0934 0 0
7:55 pm 19:55 Sunny 55 13 43 6.1 63 63 ESE 5 7 30 1016 10 16.0934 0 0
8:15 pm 20:15 Sunny 55 12.5 42 5.6 63 63 SE 7 11 30.03 1017 10 16.0934 0 0
8:35 pm 20:35 Clear 53 11.6 43 6 69 69 E 5 7 30.03 1017 10 16.0934 0 0
8:55 pm 20:55 Clear 52 11 42 5.6 70 70 SE 7 11 30.03 1017 10 16.0934 0 0
9:15 pm 21:15 Clear 50 10.1 41 5.1 71 71 SE 6 9 30.03 1017 10 16.0934 0 0
9:35 pm 21:35 Clear 48 8.9 40 4.5 74 74 SE 6 9 30.06 1018 10 16.0934 0 0
9:55 pm 21:55 Clear 48 8.8 40 4.4 74 74 SE 7 11 30.06 1018 10 16.0934 0 0
10:15 pm 22:15 Partly Cloudy 47 8.5 40 4.5 76 76 SE 6 9 30.06 1018 10 16.0934 0 0
10:35 pm 22:35 Mostly Cloudy 48 8.8 40 4.7 76 76 SE 6 9 30.09 1019 10 16.0934 0 0
10:55 pm 22:55 Mostly Cloudy 48 8.8 40 4.6 75 75 SSE 6 9 30.06 1018 10 16.0934 0 0
11:15 pm 23:15 Mostly Cloudy 48 8.7 40 4.6 76 76 SSE 5 7 30.06 1018 10 16.0934 0 0
11:35 pm 23:35 Mostly Cloudy 46 8 40 4.6 79 79 Calm 30.06 1018 10 16.0934 0 0
11:55 pm 23:55 Mostly Cloudy 47 8.1 40 4.5 78 78 SSE 5 7 30.06 1018 10 16.0934 0 0

Powered by AerisWeather